�������l�o���
Date,Time,MP-1(��Sv/h),MP-2(��Sv/h),MP-3(��Sv/h),MP-4(��Sv/h),MP-5(��Sv/h),MP-6(��Sv/h),MP-7(��Sv/h),MP-8(��Sv/h),����,����(m/s),���J
2023/06/08,00:00,0.557,0.830,0.502,1.012,0.737,0.328,0.581,0.543,�k�k��,4.4,��
2023/06/08,00:10,0.559,0.829,0.501,1.011,0.737,0.330,0.581,0.545,�k�k��,3.4,��
2023/06/08,00:20,0.557,0.830,0.501,1.011,0.736,0.329,0.580,0.541,�k,3.1,��
2023/06/08,00:30,0.557,0.830,0.500,1.011,0.735,0.329,0.581,0.542,�k,2.3,��
2023/06/08,00:40,0.557,0.830,0.501,1.011,0.734,0.328,0.581,0.542,�k�k��,1.7,��
2023/06/08,00:50,0.558,0.827,0.500,1.011,0.737,0.331,0.580,0.542,�k�k��,1.2,��
2023/06/08,01:00,0.557,0.828,0.501,1.010,0.733,0.330,0.582,0.544,-,CALM,��
2023/06/08,01:10,0.556,0.826,0.500,1.009,0.736,0.329,0.580,0.542,-,CALM,��
2023/06/08,01:20,0.558,0.828,0.501,1.010,0.735,0.329,0.581,0.543,-,CALM,��
2023/06/08,01:30,0.557,0.829,0.500,1.013,0.734,0.328,0.581,0.543,�쐼,0.6,��
2023/06/08,01:40,0.557,0.826,0.500,1.009,0.734,0.328,0.581,0.542,-,CALM,��
2023/06/08,01:50,0.556,0.827,0.499,1.011,0.733,0.328,0.582,0.542,-,CALM,��
2023/06/08,02:00,0.557,0.827,0.501,1.009,0.735,0.329,0.581,0.543,-,CALM,��
2023/06/08,02:10,0.558,0.828,0.500,1.012,0.734,0.328,0.582,0.544,�k��,1.1,��
2023/06/08,02:20,0.558,0.828,0.501,1.009,0.736,0.327,0.582,0.543,���k��,0.9,��
2023/06/08,02:30,0.557,0.829,0.499,1.010,0.735,0.329,0.581,0.543,�k��,1.4,��
2023/06/08,02:40,0.557,0.829,0.499,1.010,0.733,0.328,0.581,0.542,���k��,0.9,��
2023/06/08,02:50,0.557,0.829,0.499,1.009,0.734,0.328,0.581,0.542,�k��,1.2,��
2023/06/08,03:00,0.557,0.827,0.501,1.010,0.734,0.328,0.581,0.542,���k��,1.5,��
2023/06/08,03:10,0.557,0.827,0.499,1.009,0.733,0.330,0.580,0.542,��,0.6,��
2023/06/08,03:20,0.555,0.828,0.501,1.009,0.735,0.329,0.583,0.543,���k��,0.8,��
2023/06/08,03:30,0.556,0.827,0.498,1.011,0.736,0.328,0.580,0.543,-,CALM,��
2023/06/08,03:40,0.556,0.828,0.500,1.009,0.735,0.328,0.581,0.542,���쐼,0.6,��
2023/06/08,03:50,0.556,0.829,0.499,1.008,0.734,0.328,0.581,0.542,��,0.8,��
2023/06/08,04:00,0.557,0.826,0.499,1.009,0.733,0.328,0.581,0.543,�쓌,0.9,��
2023/06/08,04:10,0.556,0.827,0.498,1.009,0.734,0.327,0.581,0.543,��,0.6,��
2023/06/08,04:20,0.555,0.829,0.501,1.007,0.734,0.329,0.580,0.543,-,CALM,��
2023/06/08,04:30,0.555,0.829,0.498,1.007,0.733,0.328,0.580,0.542,-,CALM,��
2023/06/08,04:40,0.555,0.827,0.499,1.008,0.733,0.328,0.581,0.542,���쓌,0.6,��
2023/06/08,04:50,0.556,0.826,0.498,1.009,0.734,0.327,0.580,0.543,��,0.9,��
2023/06/08,05:00,0.558,0.826,0.497,1.009,0.733,0.328,0.582,0.543,��쐼,0.9,��
2023/06/08,05:10,0.554,0.827,0.500,1.009,0.732,0.327,0.580,0.541,��쐼,0.6,��
2023/06/08,05:20,0.556,0.826,0.499,1.008,0.734,0.328,0.580,0.543,��,0.9,��
2023/06/08,05:30,0.554,0.826,0.500,1.010,0.735,0.327,0.580,0.543,��,1.1,��
2023/06/08,05:40,0.555,0.829,0.501,1.010,0.733,0.328,0.581,0.544,�쐼,0.9,��
2023/06/08,05:50,0.556,0.828,0.499,1.008,0.733,0.328,0.580,0.543,-,CALM,��
2023/06/08,06:00,0.558,0.829,0.501,1.007,0.734,0.326,0.579,0.544,-,CALM,��
2023/06/08,06:10,0.558,0.829,0.499,1.009,0.734,0.327,0.582,0.542,-,CALM,��
2023/06/08,06:20,0.558,0.829,0.501,1.009,0.734,0.327,0.581,0.543,-,CALM,��
2023/06/08,06:30,0.558,0.827,0.500,1.007,0.735,0.328,0.580,0.542,-,CALM,��
2023/06/08,06:40,0.556,0.827,0.501,1.009,0.734,0.328,0.581,0.543,��쐼,1.1,��
2023/06/08,06:50,0.556,0.828,0.502,1.009,0.733,0.326,0.581,0.543,��,0.8,��
2023/06/08,07:00,0.558,0.828,0.500,1.009,0.734,0.327,0.580,0.543,��쐼,0.9,��
2023/06/08,07:10,0.556,0.826,0.498,1.010,0.734,0.327,0.581,0.542,��쓌,0.9,��
2023/06/08,07:20,0.556,0.824,0.499,1.010,0.732,0.325,0.582,0.543,��쓌,1.1,��
2023/06/08,07:30,0.555,0.825,0.499,1.007,0.733,0.325,0.581,0.541,�쓌,1.2,��
2023/06/08,07:40,0.555,0.826,0.498,1.011,0.734,0.327,0.580,0.542,�쓌,1.2,��
2023/06/08,07:50,0.556,0.828,0.497,1.010,0.733,0.324,0.580,0.541,���쓌,1.7,��
2023/06/08,08:00,0.556,0.825,0.499,1.007,0.734,0.327,0.579,0.541,���쓌,1.7,��
2023/06/08,08:10,0.555,0.827,0.497,1.010,0.732,0.326,0.579,0.541,�쓌,1.7,��
2023/06/08,08:20,0.555,0.824,0.497,1.010,0.733,0.325,0.579,0.541,���쓌,2.0,��
2023/06/08,08:30,0.556,0.826,0.499,1.010,0.732,0.325,0.579,0.542,���쓌,2.0,��
2023/06/08,08:40,0.557,0.826,0.498,1.010,0.733,0.327,0.580,0.543,���쓌,2.3,��
2023/06/08,08:50,0.555,0.826,0.498,1.010,0.733,0.327,0.580,0.540,�쓌,2.8,��
2023/06/08,09:00,0.555,0.826,0.498,1.010,0.733,0.326,0.580,0.542,���쓌,2.3,��
2023/06/08,09:10,0.555,0.826,0.498,1.010,0.732,0.326,0.579,0.542,���쓌,2.0,��
2023/06/08,09:20,0.556,0.827,0.498,1.009,0.731,0.325,0.579,0.541,���쓌,2.9,��
2023/06/08,09:30,0.555,0.827,0.497,1.009,0.731,0.325,0.579,0.541,���쓌,2.8,��
2023/06/08,09:40,0.557,0.827,0.497,1.008,0.733,0.326,0.579,0.540,���쓌,2.9,��
2023/06/08,09:50,0.557,0.827,0.497,1.010,0.731,0.326,0.580,0.541,���쓌,3.2,��
2023/06/08,10:00,0.557,0.825,0.498,1.011,0.732,0.327,0.578,0.541,���쓌,3.9,��
2023/06/08,10:10,0.557,0.826,0.497,1.009,0.733,0.326,0.578,0.542,���쓌,4.2,��
2023/06/08,10:20,0.556,0.828,0.497,1.010,0.731,0.326,0.579,0.541,���쓌,4.4,��
2023/06/08,10:30,0.556,0.825,0.499,1.008,0.733,0.327,0.580,0.542,���쓌,4.1,��
2023/06/08,10:40,0.557,0.828,0.499,1.012,0.732,0.326,0.579,0.542,���쓌,4.1,��
2023/06/08,10:50,0.556,0.826,0.499,1.009,0.733,0.327,0.579,0.541,�쓌,4.2,��
2023/06/08,11:00,0.555,0.828,0.499,1.008,0.733,0.327,0.579,0.541,�쓌,3.5,��
2023/06/08,11:10,0.557,0.828,0.497,1.008,0.734,0.327,0.579,0.543,�쓌,3.8,��
2023/06/08,11:20,0.557,0.827,0.498,1.010,0.732,0.326,0.580,0.542,�쓌,4.2,��
2023/06/08,11:30,0.557,0.827,0.499,1.008,0.732,0.328,0.580,0.541,�쓌,3.9,��
2023/06/08,11:40,0.557,0.828,0.497,1.008,0.733,0.327,0.579,0.541,���쓌,3.6,��
2023/06/08,11:50,0.557,0.829,0.498,1.008,0.734,0.325,0.579,0.542,�쓌,3.2,��
2023/06/08,12:00,0.556,0.829,0.499,1.008,0.733,0.326,0.579,0.542,��쓌,4.6,��
2023/06/08,12:10,0.556,0.829,0.497,1.010,0.736,0.327,0.580,0.541,��쓌,5.3,��
2023/06/08,12:20,0.557,0.828,0.498,1.008,0.734,0.327,0.577,0.541,��쓌,7.1,��
2023/06/08,12:30,0.557,0.827,0.497,1.009,0.732,0.326,0.579,0.542,��쓌,7.3,��
2023/06/08,12:40,0.556,0.827,0.498,1.010,0.734,0.326,0.577,0.542,��쓌,8.2,��
2023/06/08,12:50,0.556,0.827,0.498,1.010,0.733,0.326,0.579,0.541,��,9.2,��
2023/06/08,13:00,0.556,0.828,0.497,1.010,0.735,0.326,0.580,0.540,��,6.5,��
2023/06/08,13:10,0.555,0.830,0.498,1.006,0.734,0.327,0.578,0.541,��,7.9,��
2023/06/08,13:20,0.556,0.827,0.497,1.009,0.735,0.326,0.579,0.541,��쓌,9.5,��
2023/06/08,13:30,0.556,0.826,0.498,1.007,0.734,0.327,0.578,0.539,��쓌,9.8,��
2023/06/08,13:40,0.556,0.826,0.498,1.006,0.734,0.326,0.578,0.541,��쓌,9.3,��
2023/06/08,13:50,0.557,0.826,0.498,1.007,0.733,0.326,0.579,0.540,��쓌,8.5,��
2023/06/08,14:00,0.555,0.826,0.498,1.010,0.732,0.327,0.578,0.541,��쓌,9.5,��
2023/06/08,14:10,0.556,0.827,0.497,1.007,0.736,0.326,0.579,0.540,��쓌,9.1,��
2023/06/08,14:20,0.556,0.829,0.498,1.011,0.734,0.325,0.578,0.540,��,6.3,��
2023/06/08,14:30,0.558,0.828,0.498,1.009,0.733,0.326,0.577,0.541,��쓌,8.4,��
2023/06/08,14:40,0.556,0.826,0.498,1.010,0.735,0.326,0.578,0.541,��,9.1,��
2023/06/08,14:50,0.557,0.827,0.497,1.010,0.733,0.326,0.577,0.541,��쓌,9.4,��
2023/06/08,15:00,0.557,0.827,0.498,1.011,0.735,0.327,0.577,0.542,��쓌,8.4,��
2023/06/08,15:10,0.557,0.827,0.498,1.013,0.734,0.325,0.577,0.541,��쓌,9.3,��
2023/06/08,15:20,0.555,0.825,0.499,1.012,0.733,0.325,0.577,0.543,��쓌,9.9,��
2023/06/08,15:30,0.555,0.826,0.498,1.009,0.736,0.327,0.579,0.542,��,8.3,��
2023/06/08,15:40,0.554,0.824,0.498,1.010,0.733,0.327,0.577,0.543,��,6.4,��
2023/06/08,15:50,0.556,0.828,0.498,1.009,0.735,0.326,0.579,0.543,��,6.8,��
2023/06/08,16:00,0.557,0.828,0.499,1.012,0.734,0.326,0.579,0.543,��쓌,7.3,��
2023/06/08,16:10,0.556,0.825,0.500,1.011,0.734,0.326,0.578,0.543,��쓌,9.6,��
2023/06/08,16:20,0.555,0.829,0.501,1.010,0.736,0.326,0.578,0.544,��,10.2,��
2023/06/08,16:30,0.555,0.827,0.498,1.012,0.735,0.326,0.578,0.543,��쓌,9.5,��
2023/06/08,16:40,0.556,0.825,0.496,1.012,0.733,0.327,0.578,0.543,��쓌,8.7,��
2023/06/08,16:50,0.556,0.827,0.499,1.011,0.734,0.326,0.576,0.543,��쓌,9.0,��
2023/06/08,17:00,0.556,0.828,0.498,1.010,0.734,0.326,0.577,0.542,��,7.7,��
2023/06/08,17:10,0.554,0.826,0.497,1.012,0.735,0.325,0.578,0.542,��,8.2,��
2023/06/08,17:20,0.555,0.826,0.498,1.010,0.732,0.327,0.579,0.542,��,9.5,��
2023/06/08,17:30,0.555,0.828,0.497,1.011,0.733,0.326,0.577,0.544,��,8.5,��
2023/06/08,17:40,0.555,0.828,0.498,1.011,0.734,0.326,0.578,0.543,��,8.5,��
2023/06/08,17:50,0.555,0.827,0.499,1.012,0.734,0.326,0.578,0.543,��쓌,8.9,��
2023/06/08,18:00,0.555,0.828,0.500,1.011,0.732,0.326,0.578,0.543,��쓌,9.5,��
2023/06/08,18:10,0.557,0.827,0.500,1.011,0.734,0.326,0.577,0.543,��,8.7,��
2023/06/08,18:20,0.554,0.826,0.497,1.013,0.734,0.326,0.578,0.543,��쓌,8.1,��
2023/06/08,18:30,0.555,0.827,0.495,1.012,0.734,0.326,0.578,0.545,��,6.3,��
2023/06/08,18:40,0.556,0.827,0.496,1.013,0.734,0.326,0.576,0.543,��,6.3,��
2023/06/08,18:50,0.554,0.826,0.496,1.012,0.734,0.325,0.577,0.543,��,5.3,��
2023/06/08,19:00,0.557,0.825,0.498,1.012,0.734,0.325,0.577,0.543,��,4.1,��
2023/06/08,19:10,0.557,0.826,0.498,1.011,0.734,0.326,0.577,0.544,��쓌,5.9,��
2023/06/08,19:20,0.555,0.825,0.497,1.011,0.732,0.326,0.577,0.543,��,8.3,��
2023/06/08,19:30,0.555,0.825,0.498,1.012,0.734,0.326,0.578,0.542,��,7.3,��
2023/06/08,19:40,0.555,0.828,0.499,1.012,0.733,0.326,0.576,0.543,��,7.9,��
2023/06/08,19:50,0.555,0.828,0.499,1.011,0.734,0.326,0.578,0.543,��쓌,8.1,��
2023/06/08,20:00,0.555,0.826,0.499,1.010,0.733,0.326,0.577,0.543,��,8.7,��
2023/06/08,20:10,0.555,0.829,0.497,1.012,0.734,0.324,0.577,0.543,��,8.9,��
2023/06/08,20:20,0.556,0.827,0.498,1.012,0.734,0.325,0.578,0.543,��,7.7,��
2023/06/08,20:30,0.557,0.825,0.498,1.014,0.733,0.326,0.579,0.543,��,8.7,��
2023/06/08,20:40,0.554,0.826,0.496,1.013,0.731,0.325,0.578,0.542,��,6.9,��
2023/06/08,20:50,0.553,0.828,0.497,1.013,0.733,0.324,0.578,0.542,��,7.1,��
2023/06/08,21:00,0.555,0.828,0.499,1.011,0.734,0.327,0.578,0.545,��쓌,8.1,��
2023/06/08,21:10,0.555,0.828,0.499,1.013,0.732,0.324,0.579,0.544,��,8.1,��
2023/06/08,21:20,0.555,0.827,0.500,1.010,0.733,0.326,0.580,0.542,��,7.3,�L
2023/06/08,21:30,0.556,0.828,0.497,1.013,0.735,0.325,0.578,0.543,��,6.1,��
2023/06/08,21:40,0.553,0.827,0.497,1.011,0.732,0.326,0.578,0.542,��,7.5,��
2023/06/08,21:50,0.557,0.827,0.496,1.012,0.731,0.327,0.577,0.544,��,7.0,�L
2023/06/08,22:00,0.556,0.827,0.498,1.012,0.734,0.326,0.578,0.542,��,7.3,��
2023/06/08,22:10,0.554,0.826,0.497,1.012,0.733,0.324,0.578,0.544,��,7.9,��
2023/06/08,22:20,0.554,0.827,0.498,1.011,0.733,0.326,0.577,0.544,��,7.8,�L
2023/06/08,22:30,0.555,0.827,0.499,1.013,0.733,0.326,0.579,0.543,��,8.0,�L
2023/06/08,22:40,0.558,0.829,0.500,1.014,0.736,0.327,0.579,0.543,��,7.3,�L
2023/06/08,22:50,0.556,0.826,0.499,1.014,0.733,0.327,0.578,0.543,��,8.4,�L
2023/06/08,23:00,0.556,0.827,0.499,1.013,0.733,0.326,0.578,0.545,��,9.0,�L
2023/06/08,23:10,0.556,0.825,0.498,1.011,0.734,0.327,0.577,0.542,��,8.5,�L
2023/06/08,23:20,0.554,0.826,0.497,1.012,0.731,0.327,0.577,0.541,��,7.8,�L
2023/06/08,23:30,0.556,0.825,0.497,1.013,0.731,0.328,0.575,0.543,��,6.6,�L
2023/06/08,23:40,0.556,0.824,0.498,1.013,0.731,0.327,0.575,0.539,��,6.8,�L
2023/06/08,23:50,0.555,0.821,0.496,1.011,0.731,0.328,0.576,0.540,��,6.1,�L
